XW-2A

Last updated on Sat Apr 22 2023 00:03:08 GMT+0000 (Coordinated Universal Time)

1 40903U 15049E 23111.38770896 .02987816 23123-5 65391-3 0 9995 2 40903 97.0948 180.3638 0009606 251.2590 173.4847 16.30426858427470

Satellite not in orbit